When you browse on this site, cookies collect data to enhance your experience and personalize the content and advertising you see.
Visit our Privacy Policy to learn more. By continuing to use the site, you agree to this use of cookies and data.
  • In Czech Republic
  • List of Countries
  • For 7 days
  • Water Temperature
  • Weather Map
  • Weather Widgets
  • user-avatar
    Login

    Hourly Weather Canberra

    Today, 6 June, Saturday

    Time Temperature Precipitation Wind Pressure Humidity
    00:00 +2°C° 0 mm 0 mps 715 mmHg 87%
    01:00 +2°C° 0 mm 0 mps 715 mmHg 86%
    02:00 +1°C° 0 mm 0 mps 715 mmHg 86%
    03:00 +1°C° 0 mm 0 mps 715 mmHg 86%
    04:00 +1°C° 0 mm 0 mps 714 mmHg 86%
    05:00 +1°C° 0 mm 0 mps 714 mmHg 86%
    06:00 +1°C° 0 mm 0 mps 714 mmHg 86%
    07:00 0°C° 0 mm 0 mps 714 mmHg 86%
    08:00 +3°C° 0 mm 0 mps 715 mmHg 77%
    09:00 +6°C° 0 mm 0 mps 715 mmHg 68%
    10:00 +9°C° 0 mm 0 mps 715 mmHg 60%
    11:00 +11°C° 0 mm 1 mps 714 mmHg 56%
    12:00 +12°C° 0 mm 1 mps 714 mmHg 52%
    13:00 +14°C° 0 mm 1 mps 713 mmHg 48%
    14:00 +13°C° 0 mm 2 mps 713 mmHg 52%
    15:00 +12°C° 0 mm 2 mps 712 mmHg 56%
    16:00 +10°C° 0 mm 2 mps 712 mmHg 61%
    17:00 +9°C° 0 mm 1 mps 712 mmHg 69%
    18:00 +7°C° 0 mm 1 mps 713 mmHg 77%
    19:00 +4°C° 0 mm 0 mps 713 mmHg 86%
    20:00 +4°C° 0 mm 0 mps 713 mmHg 87%
    21:00 +4°C° 0 mm 0 mps 713 mmHg 87%
    22:00 +3°C° 0 mm 0 mps 713 mmHg 88%
    23:00 +3°C° 0 mm 0 mps 713 mmHg 89%

    Tomorrow, 7 June, Sunday

    Time Temperature Precipitation Wind Pressure Humidity
    00:00 +3°C° 0 mm 0 mps 713 mmHg 90%
    01:00 +3°C° 0 mm 0 mps 712 mmHg 91%
    02:00 +4°C° 0 mm 1 mps 712 mmHg 91%
    03:00 +5°C° 0 mm 1 mps 712 mmHg 91%
    04:00 +5°C° 0 mm 1 mps 712 mmHg 91%
    05:00 +5°C° 0 mm 1 mps 713 mmHg 90%
    06:00 +5°C° 0 mm 1 mps 713 mmHg 88%
    07:00 +6°C° 0 mm 1 mps 713 mmHg 87%
    08:00 +7°C° 0 mm 1 mps 714 mmHg 82%
    09:00 +9°C° 0 mm 1 mps 714 mmHg 77%
    10:00 +10°C° 0 mm 1 mps 714 mmHg 72%
    11:00 +11°C° 0 mm 1 mps 714 mmHg 67%
    12:00 +12°C° 0 mm 1 mps 713 mmHg 61%
    13:00 +13°C° 0 mm 1 mps 713 mmHg 55%
    14:00 +13°C° 0 mm 1 mps 713 mmHg 58%
    15:00 +12°C° 0 mm 1 mps 713 mmHg 61%
    16:00 +11°C° 0 mm 0 mps 713 mmHg 64%
    17:00 +10°C° 0 mm 1 mps 713 mmHg 74%
    18:00 +9°C° 0 mm 1 mps 714 mmHg 83%
    19:00 +6°C° 0 mm 2 mps 714 mmHg 92%
    20:00 +6°C° 0 mm 2 mps 715 mmHg 92%
    21:00 +7°C° 0 mm 1 mps 715 mmHg 92%
    22:00 +7°C° 0 mm 1 mps 715 mmHg 91%
    23:00 +6°C° 0 mm 1 mps 715 mmHg 91%

    Day after tomorrow, 8 June, Monday

    Time Temperature Precipitation Wind Pressure Humidity
    00:00 +6°C° 0 mm 1 mps 716 mmHg 91%
    01:00 +5°C° 0 mm 1 mps 716 mmHg 90%
    02:00 +5°C° 0 mm 1 mps 716 mmHg 91%
    03:00 +4°C° 0 mm 1 mps 716 mmHg 92%
    04:00 +3°C° 0 mm 1 mps 715 mmHg 93%
    05:00 +3°C° 0 mm 1 mps 716 mmHg 93%
    06:00 +3°C° 0 mm 1 mps 716 mmHg 93%
    07:00 +3°C° 0 mm 1 mps 717 mmHg 93%
    08:00 +5°C° 0 mm 1 mps 717 mmHg 85%
    09:00 +7°C° 0 mm 1 mps 717 mmHg 76%
    10:00 +10°C° 0 mm 1 mps 718 mmHg 67%
    11:00 +11°C° 0 mm 1 mps 717 mmHg 61%
    12:00 +13°C° 0 mm 1 mps 717 mmHg 55%
    13:00 +14°C° 0 mm 1 mps 717 mmHg 49%
    14:00 +14°C° 0 mm 1 mps 717 mmHg 53%
    15:00 +13°C° 0 mm 1 mps 717 mmHg 56%
    16:00 +12°C° 0 mm 1 mps 717 mmHg 60%
    17:00 +10°C° 0 mm 1 mps 717 mmHg 69%
    18:00 +8°C° 0 mm 1 mps 717 mmHg 78%
    19:00 +6°C° 0 mm 1 mps 718 mmHg 87%
    20:00 +5°C° 0 mm 1 mps 718 mmHg 89%
    21:00 +4°C° 0 mm 0 mps 718 mmHg 91%
    22:00 +3°C° 0 mm 0 mps 719 mmHg 93%
    23:00 +3°C° 0 mm 0 mps 719 mmHg 94%

    9 June, Tuesday

    Time Temperature Precipitation Wind Pressure Humidity
    00:00 +3°C° 0 mm 0 mps 719 mmHg 94%
    01:00 +4°C° 0 mm 1 mps 718 mmHg 95%
    02:00 +3°C° 0 mm 0 mps 718 mmHg 95%
    03:00 +2°C° 0 mm 0 mps 718 mmHg 95%
    04:00 +2°C° 0 mm 0 mps 718 mmHg 95%
    05:00 +2°C° 0 mm 0 mps 718 mmHg 95%
    06:00 +2°C° 0 mm 0 mps 718 mmHg 94%
    07:00 +1°C° 0 mm 0 mps 719 mmHg 94%
    08:00 +4°C° 0 mm 0 mps 719 mmHg 86%
    09:00 +7°C° 0 mm 1 mps 719 mmHg 78%
    10:00 +10°C° 0 mm 1 mps 719 mmHg 70%
    11:00 +11°C° 0 mm 1 mps 719 mmHg 62%
    12:00 +13°C° 0 mm 2 mps 718 mmHg 54%
    13:00 +13°C° 0 mm 3 mps 718 mmHg 46%
    14:00 +12°C° 0 mm 3 mps 718 mmHg 49%
    15:00 +12°C° 0 mm 3 mps 717 mmHg 53%
    16:00 +12°C° 0 mm 2 mps 717 mmHg 57%
    17:00 +9°C° 0 mm 2 mps 717 mmHg 64%
    18:00 +7°C° 0 mm 2 mps 717 mmHg 70%
    19:00 +6°C° 0 mm 1 mps 717 mmHg 77%
    20:00 +6°C° 0 mm 1 mps 717 mmHg 77%
    21:00 +4°C° 0 mm 0 mps 717 mmHg 78%
    22:00 +4°C° 0 mm 0 mps 717 mmHg 79%
    23:00 +4°C° 0 mm 0 mps 717 mmHg 79%

    10 June, Wednesday

    Time Temperature Precipitation Wind Pressure Humidity
    00:00 +4°C° 0 mm 0 mps 717 mmHg 78%
    01:00 +4°C° 0 mm 1 mps 717 mmHg 78%
    02:00 +3°C° 0 mm 0 mps 716 mmHg 78%
    03:00 +3°C° 0 mm 0 mps 716 mmHg 77%
    04:00 +2°C° 0 mm 0 mps 716 mmHg 77%
    05:00 +2°C° 0 mm 0 mps 716 mmHg 77%
    06:00 +2°C° 0 mm 0 mps 716 mmHg 76%
    07:00 +3°C° 0 mm 1 mps 716 mmHg 75%
    08:00 +5°C° 0 mm 1 mps 716 mmHg 67%
    09:00 +8°C° 0 mm 1 mps 717 mmHg 59%
    10:00 +9°C° 0 mm 2 mps 717 mmHg 51%
    11:00 +10°C° 0 mm 2 mps 716 mmHg 50%
    12:00 +12°C° 0 mm 3 mps 716 mmHg 48%
    13:00 +13°C° 0 mm 3 mps 715 mmHg 46%
    14:00 +13°C° 0 mm 3 mps 715 mmHg 50%
    15:00 +12°C° 0 mm 3 mps 714 mmHg 53%
    16:00 +11°C° 0 mm 3 mps 714 mmHg 57%
    17:00 +9°C° 0 mm 3 mps 714 mmHg 66%
    18:00 +7°C° 0 mm 2 mps 715 mmHg 75%
    19:00 +5°C° 0 mm 2 mps 715 mmHg 83%
    20:00 +5°C° 0 mm 1 mps 715 mmHg 85%
    21:00 +5°C° 0 mm 1 mps 715 mmHg 86%
    22:00 +4°C° 0 mm 1 mps 715 mmHg 88%
    23:00 +4°C° 0 mm 1 mps 714 mmHg 88%

    11 June, Thursday

    Time Temperature Precipitation Wind Pressure Humidity
    00:00 +3°C° 0 mm 1 mps 714 mmHg 89%
    01:00 +3°C° 0 mm 1 mps 714 mmHg 89%
    02:00 +3°C° 0 mm 1 mps 714 mmHg 90%
    03:00 +2°C° 0 mm 1 mps 713 mmHg 90%
    04:00 +2°C° 0 mm 1 mps 713 mmHg 90%
    05:00 +2°C° 0 mm 1 mps 713 mmHg 90%
    06:00 +1°C° 0 mm 0 mps 713 mmHg 89%
    07:00 +1°C° 0 mm 0 mps 714 mmHg 89%
    08:00 +5°C° 0 mm 1 mps 714 mmHg 79%
    09:00 +7°C° 0 mm 1 mps 714 mmHg 70%
    10:00 +9°C° 0 mm 1 mps 714 mmHg 61%
    11:00 +10°C° 0 mm 2 mps 714 mmHg 55%
    12:00 +12°C° 0 mm 2 mps 713 mmHg 49%
    13:00 +12°C° 0 mm 3 mps 713 mmHg 43%
    14:00 +12°C° 0 mm 3 mps 713 mmHg 47%
    15:00 +11°C° 0 mm 3 mps 712 mmHg 51%
    16:00 +10°C° 0 mm 3 mps 712 mmHg 56%
    17:00 +8°C° 0 mm 2 mps 712 mmHg 66%
    18:00 +6°C° 0 mm 2 mps 713 mmHg 77%
    19:00 +5°C° 0 mm 1 mps 713 mmHg 88%
    20:00 +4°C° 0 mm 1 mps 713 mmHg 88%
    21:00 +3°C° 0 mm 1 mps 713 mmHg 88%
    22:00 +3°C° 0 mm 1 mps 713 mmHg 88%
    23:00 +2°C° 0 mm 1 mps 713 mmHg 87%
    Show more